TimeEDT,TemperatureF,Dew PointF,Humidity,Sea Level PressureIn,VisibilityMPH,Wind Direction,Wind SpeedMPH,Gust SpeedMPH,PrecipitationIn,Events,Conditions,WindDirDegrees,DateUTC
12:54 AM,73.0,57.0,57,30.16,10.0,WSW,10.4,-,N/A,,Scattered Clouds,240,2012-07-13 04:54:00
1:54 AM,72.0,55.9,57,30.15,10.0,WSW,12.7,-,N/A,,Scattered Clouds,240,2012-07-13 05:54:00
2:54 AM,71.1,57.0,61,30.14,10.0,SW,11.5,-,N/A,,Scattered Clouds,230,2012-07-13 06:54:00
3:54 AM,70.0,57.0,63,30.15,10.0,SW,8.1,-,N/A,,Scattered Clouds,220,2012-07-13 07:54:00
4:54 AM,70.0,57.0,63,30.15,10.0,SSW,9.2,-,N/A,,Clear,210,2012-07-13 08:54:00
5:54 AM,70.0,57.0,63,30.16,10.0,SW,11.5,-,N/A,,Clear,230,2012-07-13 09:54:00
6:54 AM,72.0,57.9,61,30.17,10.0,WSW,10.4,-,N/A,,Clear,240,2012-07-13 10:54:00
7:54 AM,75.0,59.0,57,30.18,10.0,WSW,9.2,-,N/A,,Partly Cloudy,240,2012-07-13 11:54:00
8:54 AM,79.0,61.0,54,30.19,10.0,SW,8.1,-,N/A,,Partly Cloudy,230,2012-07-13 12:54:00
9:54 AM,82.0,63.0,52,30.18,10.0,SW,6.9,-,N/A,,Partly Cloudy,220,2012-07-13 13:54:00
10:54 AM,84.0,64.9,53,30.19,10.0,South,9.2,-,N/A,,Partly Cloudy,170,2012-07-13 14:54:00
11:54 AM,87.1,66.0,49,30.17,10.0,South,10.4,-,N/A,,Partly Cloudy,180,2012-07-13 15:54:00
12:54 PM,90.0,64.9,43,30.16,10.0,South,10.4,-,N/A,,Scattered Clouds,190,2012-07-13 16:54:00
1:54 PM,88.0,66.9,49,30.15,10.0,South,16.1,-,N/A,,Mostly Cloudy,190,2012-07-13 17:54:00
2:54 PM,84.0,66.0,55,30.15,10.0,South,15.0,-,N/A,,Scattered Clouds,190,2012-07-13 18:54:00
3:54 PM,86.0,66.0,51,30.14,10.0,SSW,15.0,-,N/A,,Scattered Clouds,200,2012-07-13 19:54:00
4:54 PM,84.9,60.1,43,30.13,10.0,SSW,17.3,-,N/A,,Scattered Clouds,200,2012-07-13 20:54:00
5:54 PM,84.0,57.9,41,30.13,10.0,SSW,17.3,-,N/A,,Mostly Cloudy,200,2012-07-13 21:54:00
6:54 PM,81.0,55.0,41,30.13,10.0,South,13.8,21.9,N/A,,Mostly Cloudy,190,2012-07-13 22:54:00
7:54 PM,78.1,57.9,50,30.14,10.0,South,12.7,-,N/A,,Mostly Cloudy,190,2012-07-13 23:54:00
8:54 PM,75.9,59.0,56,30.14,10.0,SSW,10.4,-,N/A,,Mostly Cloudy,210,2012-07-14 00:54:00
9:54 PM,75.0,57.9,55,30.15,10.0,SSW,6.9,-,N/A,,Mostly Cloudy,200,2012-07-14 01:54:00
10:54 PM,73.9,57.9,57,30.16,10.0,SSW,8.1,-,N/A,,Overcast,210,2012-07-14 02:54:00
11:54 PM,73.0,59.0,61,30.14,9.0,SSW,5.8,-,N/A,,Overcast,200,2012-07-14 03:54:00